EW2142 Weather Reports


time (UTC)temp
C
wind
direction
speed
KPH
gust
KPH
rain 1hr
cm
rain 24hr
cm
rain mn
cm
humidity
%
barometer
mb
20260502200024 12 0 0.0 0.0 0.00 0.00 0.00 68 1010.4
20260502195503 13 0 0.0 0.0 0.00 0.00 0.00 68 1010.3
20260502195003 13 316 0.0 1.6 0.00 0.00 0.00 69 1010.3
20260502194524 13 302 0.0 1.6 0.00 0.00 0.00 69 1010.4
20260502194024 13 319 0.0 4.8 0.00 0.00 0.00 69 1010.4
20260502193503 13 314 0.0 4.8 0.00 0.00 0.00 68 1010.4
20260502193003 13 296 0.0 3.2 0.00 0.00 0.00 68 1010.4
20260502192524 13 321 0.0 3.2 0.00 0.00 0.00 68 1010.3
20260502192023 13 305 0.0 4.8 0.00 0.00 0.00 68 1010.3
20260502191503 13 301 0.0 4.8 0.00 0.00 0.00 68 1010.3
20260502191003 13 141 0.0 3.2 0.00 0.00 0.00 68 1010.3
20260502190503 14 319 0.0 4.8 0.00 0.00 0.00 68 1010.3
20260502190003 14 321 0.0 4.8 0.00 0.00 0.00 68 1010.2
20260502185503 14 281 0.0 1.6 0.00 0.00 0.00 68 1010.2
20260502185002 15 215 0.0 1.6 0.00 0.00 0.00 68 1010.2
20260502184503 15 239 0.0 1.6 0.00 0.00 0.00 68 1010.1
20260502184003 15 274 0.0 1.6 0.00 0.00 0.00 68 1010.1
20260502183503 15 311 0.0 1.6 0.00 0.00 0.00 68 1010.0
20260502183003 15 325 0.0 1.6 0.00 0.00 0.00 68 1010.1
20260502182503 15 333 0.0 1.6 0.00 0.00 0.00 67 1010.0
20260502182003 15 352 0.0 1.6 0.00 0.00 0.00 67 1010.0
20260502181502 15 1 0.0 1.6 0.00 0.00 0.00 67 1010.0
20260502181003 15 346 0.0 1.6 0.00 0.00 0.00 67 1010.1
20260502180502 16 326 0.0 1.6 0.00 0.00 0.00 67 1009.9
20260502170502 18 308 1.6 4.8 0.00 0.00 0.00 56 1010.2
20260502164003 21 263 0.0 6.4 0.00 0.00 0.00 47 1010.2
20260502163503 21 257 0.0 6.4 0.00 0.00 0.00 47 1010.1
20260502163003 21 252 0.0 4.8 0.00 0.00 0.00 47 1010.1
20260502162524 21 293 0.0 4.8 0.00 0.00 0.00 48 1010.2
20260502162024 21 265 0.0 4.8 0.00 0.00 0.00 49 1010.2
20260502161502 21 254 1.6 6.4 0.00 0.00 0.00 47 1010.2
20260502161003 21 244 1.6 9.7 0.00 0.00 0.00 47 1010.3
20260502160524 21 287 1.6 12.9 0.00 0.00 0.00 46 1010.3
20260502151502 23 250 1.6 6.4 0.00 0.00 0.00 42 1010.8
20260502151003 23 255 1.6 6.4 0.00 0.00 0.00 42 1010.8
20260502150503 22 247 1.6 6.4 0.00 0.00 0.00 44 1010.9
20260502130503 22 292 1.6 4.8 0.00 0.00 0.00 45 1012.3
20260502123503 22 241 1.6 6.4 0.00 0.00 0.00 48 1012.8
20260502123003 21 236 1.6 6.4 0.00 0.00 0.00 50 1012.8
20260502122503 21 232 1.6 6.4 0.00 0.00 0.00 48 1012.9
20260502122003 21 273 1.6 8.0 0.00 0.00 0.00 48 1013.0
20260502121503 21 269 1.6 8.0 0.00 0.00 0.00 49 1013.0
20260502121003 21 279 1.6 8.0 0.00 0.00 0.00 48 1013.1
20260502120502 21 292 1.6 8.0 0.00 0.00 0.00 50 1013.2
20260502115503 21 204 1.6 9.7 0.00 0.00 0.00 50 1013.3
20260502115002 20 214 1.6 9.7 0.00 0.00 0.00 49 1013.4
20260502114003 21 245 1.6 8.0 0.00 0.00 0.00 50 1013.4
20260502113524 21 230 1.6 9.7 0.00 0.00 0.00 50 1013.4
20260502113003 21 227 1.6 9.7 0.00 0.00 0.00 50 1013.5
20260502112503 21 248 1.6 8.0 0.00 0.00 0.00 49 1013.4
20260502112003 21 269 0.0 4.8 0.00 0.00 0.00 50 1013.4
20260502111524 21 273 0.0 6.4 0.00 0.00 0.00 51 1013.5
20260502111002 21 264 0.0 6.4 0.00 0.00 0.00 51 1013.4
20260502110503 20 275 1.6 8.0 0.00 0.00 0.00 51 1013.5
20260502110003 20 276 1.6 8.0 0.00 0.00 0.00 53 1013.5
20260502105502 20 242 0.0 4.8 0.00 0.00 0.00 52 1013.6
20260502105003 20 229 1.6 4.8 0.00 0.00 0.00 52 1013.6
20260502104503 20 249 1.6 3.2 0.00 0.00 0.00 52 1013.6
20260502104024 20 264 0.0 8.0 0.00 0.00 0.00 53 1013.7
20260502103524 20 187 0.0 8.0 0.00 0.00 0.00 53 1013.8
20260502103024 20 273 1.6 8.0 0.00 0.00 0.00 53 1013.8
20260502102524 20 277 1.6 8.0 0.00 0.00 0.00 53 1013.9
20260502102003 20 195 0.0 6.4 0.00 0.00 0.00 52 1013.9
20260502101503 20 259 0.0 3.2 0.00 0.00 0.00 53 1014.0
20260502101023 20 244 0.0 4.8 0.00 0.00 0.00 55 1014.1
20260502100503 19 248 1.6 6.4 0.00 0.00 0.00 55 1014.0
20260502091503 18 252 0.0 3.2 0.00 0.00 0.00 57 1014.6
20260502091023 18 270 0.0 3.2 0.00 0.00 0.00 57 1014.6
20260502090503 18 288 0.0 4.8 0.00 0.00 0.00 58 1014.6
20260502071503 16 250 0.0 1.6 0.00 0.00 0.00 60 1015.0
20260502071003 16 291 0.0 3.2 0.00 0.00 0.00 61 1015.0
20260502070524 16 294 0.0 3.2 0.00 0.00 0.00 62 1015.0
20260502070002 15 292 0.0 4.8 0.00 0.00 0.00 63 1015.1
20260502065503 15 299 0.0 8.0 0.00 0.00 0.00 63 1015.1
20260502065003 15 291 0.0 8.0 0.00 0.00 0.00 63 1015.2
20260502064503 15 146 0.0 3.2 0.00 0.00 0.00 64 1015.3
20260502064003 14 155 0.0 3.2 0.00 0.00 0.00 65 1015.4
20260502063524 13 322 0.0 3.2 0.00 0.00 0.00 65 1015.4
20260502063003 13 353 0.0 3.2 0.00 0.00 0.00 65 1015.3
20260502062503 13 333 0.0 4.8 0.00 0.00 0.00 65 1015.4
20260502062003 12 280 0.0 4.8 0.00 0.00 0.00 64 1015.4
20260502061503 12 195 0.0 3.2 0.00 0.00 0.00 64 1015.5
20260502061024 12 260 0.0 1.6 0.00 0.00 0.00 63 1015.5
20260502060502 12 85 0.0 3.2 0.00 0.00 0.00 62 1015.6
20260502060003 11 32 0.0 3.2 0.00 0.00 0.00 61 1015.6
20260502055503 11 309 0.0 3.2 0.00 0.00 0.00 60 1015.6
20260502055003 11 320 0.0 3.2 0.00 0.00 0.00 58 1015.7
20260502054524 11 30 0.0 1.6 0.00 0.00 0.00 55 1015.7
20260502054003 10 136 0.0 1.6 0.00 0.00 0.00 52 1015.7
20260502053503 10 164 0.0 1.6 0.00 0.00 0.00 49 1015.8
20260502053003 10 236 0.0 1.6 0.00 0.00 0.00 45 1015.9
20260502052524 10 113 0.0 1.6 0.00 0.00 0.00 39 1015.9
20260502052003 9 113 0.0 1.6 0.00 0.00 0.00 32 1016.0
20260502051503 8 0 0.0 0.0 0.00 0.00 0.00 25 1016.0
20260502051003 8 0 0.0 1.6 0.00 0.00 0.00 18 1016.1
20260502050502 8 0 0.0 1.6 0.00 0.00 0.00 11 1016.1
20260502050003 8 0 0.0 0.0 0.00 0.00 0.00 3 1016.1
20260502045503 7 0 0.0 0.0 0.00 0.00 0.00 1 1016.2
20260502045003 7 0 0.0 0.0 0.00 0.00 0.00 1 1016.2
20260502044503 7 0 0.0 0.0 0.00 0.00 0.00 1 1016.2
20260502044003 7 0 0.0 0.0 0.00 0.00 0.00 1 1016.3
20260502043503 7 0 0.0 0.0 0.00 0.00 0.00 1 1016.4
20260502043003 7 0 0.0 0.0 0.00 0.00 0.00 1 1016.5
20260502042503 7 0 0.0 0.0 0.00 0.00 0.00 1 1016.5
20260502042003 7 0 0.0 0.0 0.00 0.00 0.00 1 1016.5
20260502041503 7 0 0.0 0.0 0.00 0.00 0.00 1 1016.6
20260502041024 6 0 0.0 0.0 0.00 0.00 0.00 1 1016.7
20260502040503 6 0 0.0 0.0 0.00 0.00 0.00 1 1016.7
20260502040003 6 0 0.0 0.0 0.00 0.00 0.00 2 1016.7
20260502035502 6 0 0.0 0.0 0.00 0.00 0.00 8 1016.8
20260502035002 6 0 0.0 0.0 0.00 0.00 0.00 11 1016.8
20260502034503 6 0 0.0 0.0 0.00 0.00 0.00 15 1016.8
20260502034003 6 0 0.0 0.0 0.00 0.00 0.00 14 1016.9
20260502033503 6 0 0.0 0.0 0.00 0.00 0.00 13 1017.0
20260502033024 6 0 0.0 0.0 0.00 0.00 0.00 10 1017.1
20260502032503 6 0 0.0 0.0 0.00 0.00 0.00 6 1017.2
20260502032003 6 0 0.0 0.0 0.00 0.00 0.00 3 1017.3
20260502031524 6 0 0.0 0.0 0.00 0.00 0.00 19 1017.4
20260502031003 6 0 0.0 0.0 0.00 0.00 0.00 23 1017.5
20260502030503 6 0 0.0 0.0 0.00 0.00 0.00 24 1017.6
20260502030002 6 0 0.0 0.0 0.00 0.00 0.00 27 1017.6
20260502025503 6 0 0.0 0.0 0.00 0.00 0.00 28 1017.7
20260502025024 6 0 0.0 0.0 0.00 0.00 0.00 27 1017.8
20260502024503 6 0 0.0 0.0 0.00 0.00 0.00 30 1017.8
20260502024003 6 0 0.0 0.0 0.00 0.00 0.00 37 1017.9
20260502023503 6 0 0.0 0.0 0.00 0.00 0.00 37 1017.9
20260502023003 6 298 0.0 1.6 0.00 0.00 0.00 35 1018.0
20260502022503 6 298 0.0 1.6 0.00 0.00 0.00 40 1018.0
20260502022003 6 0 0.0 0.0 0.00 0.00 0.00 44 1018.1
20260502021503 6 0 0.0 0.0 0.00 0.00 0.00 46 1018.2
20260502021024 6 0 0.0 0.0 0.00 0.00 0.00 47 1018.2
20260502020503 6 0 0.0 0.0 0.00 0.00 0.00 46 1018.2
20260502020003 6 0 0.0 0.0 0.00 0.00 0.00 44 1018.4
20260502015503 6 0 0.0 0.0 0.00 0.00 0.00 44 1018.5
20260502015002 6 0 0.0 0.0 0.00 0.00 0.00 46 1018.5
20260502014503 6 0 0.0 0.0 0.00 0.00 0.00 45 1018.6
20260502014024 6 0 0.0 0.0 0.00 0.00 0.00 47 1018.6
20260502013503 6 0 0.0 0.0 0.00 0.00 0.00 51 1018.7
20260502013003 6 0 0.0 0.0 0.00 0.00 0.00 54 1018.8
20260502012524 6 0 0.0 0.0 0.00 0.00 0.00 54 1018.9
20260502012003 6 0 0.0 0.0 0.00 0.00 0.00 55 1019.0
20260502011503 6 0 0.0 0.0 0.00 0.00 0.00 57 1019.0
20260502011003 7 0 0.0 0.0 0.00 0.00 0.00 58 1019.1
20260502010503 7 0 0.0 0.0 0.00 0.00 0.00 60 1019.1
20260502010002 7 0 0.0 0.0 0.00 0.00 0.00 60 1019.2
20260502005524 7 0 0.0 0.0 0.00 0.00 0.00 60 1019.3
20260502005002 7 0 0.0 0.0 0.00 0.00 0.00 61 1019.4
20260502004503 7 0 0.0 0.0 0.00 0.00 0.00 62 1019.4
20260502004003 7 0 0.0 0.0 0.00 0.00 0.00 61 1019.5
20260502003503 7 0 0.0 0.0 0.00 0.00 0.00 63 1019.6
20260502003003 7 0 0.0 0.0 0.00 0.00 0.00 64 1019.6
20260502002503 7 0 0.0 0.0 0.00 0.00 0.00 64 1019.7
20260502002003 7 0 0.0 0.0 0.00 0.00 0.00 65 1019.7
20260502001524 7 0 0.0 0.0 0.00 0.00 0.00 66 1019.7
20260502001003 7 0 0.0 0.0 0.00 0.00 0.00 66 1019.8
20260502000503 7 0 0.0 0.0 0.00 0.00 0.00 66 1019.8
20260502000003 7 0 0.0 0.0 0.00 0.00 0.00 66 1019.8
20260501235503 7 0 0.0 0.0 0.00 0.00 0.00 68 1019.9
20260501235003 7 0 0.0 0.0 0.00 0.00 0.00 68 1019.9
20260501234503 7 0 0.0 0.0 0.00 0.00 0.00 68 1019.9
20260501234003 7 0 0.0 0.0 0.00 0.00 0.00 68 1020.0
20260501233502 7 0 0.0 0.0 0.00 0.00 0.00 68 1020.0
20260501233003 7 0 0.0 0.0 0.00 0.00 0.00 69 1020.1
20260501232503 7 0 0.0 0.0 0.00 0.00 0.00 69 1020.2
20260501232003 7 0 0.0 0.0 0.00 0.00 0.00 69 1020.2
20260501231503 7 0 0.0 0.0 0.00 0.00 0.00 69 1020.3
20260501231003 7 0 0.0 0.0 0.00 0.00 0.00 69 1020.3
20260501230503 7 0 0.0 0.0 0.00 0.00 0.00 69 1020.4
20260501230002 8 0 0.0 0.0 0.00 0.00 0.00 69 1020.4
20260501225524 8 0 0.0 0.0 0.00 0.00 0.00 69 1020.5
20260501225002 8 0 0.0 0.0 0.00 0.00 0.00 69 1020.6
20260501224524 8 305 0.0 1.6 0.00 0.00 0.00 69 1020.6
20260501224024 8 305 0.0 1.6 0.00 0.00 0.00 69 1020.6
20260501223503 7 0 0.0 0.0 0.00 0.00 0.00 70 1020.6
20260501223003 7 0 0.0 0.0 0.00 0.00 0.00 70 1020.5
20260501222503 7 0 0.0 0.0 0.00 0.00 0.00 70 1020.6
20260501222003 7 0 0.0 0.0 0.00 0.00 0.00 70 1020.6
20260501221503 8 0 0.0 0.0 0.00 0.00 0.00 70 1020.6
20260501221003 8 0 0.0 0.0 0.00 0.00 0.00 70 1020.6
20260501220503 8 0 0.0 0.0 0.00 0.00 0.00 70 1020.7
20260501215503 8 0 0.0 0.0 0.00 0.00 0.00 70 1020.7
20260501215002 8 0 0.0 0.0 0.00 0.00 0.00 70 1020.8
20260501214503 8 0 0.0 0.0 0.00 0.00 0.00 70 1020.8
20260501214003 8 0 0.0 0.0 0.00 0.00 0.00 70 1020.9
20260501213503 8 0 0.0 0.0 0.00 0.00 0.00 70 1021.0
20260501213003 8 0 0.0 0.0 0.00 0.00 0.00 70 1021.0
20260501212524 8 0 0.0 0.0 0.00 0.00 0.00 70 1021.0
20260501212003 8 0 0.0 0.0 0.00 0.00 0.00 69 1021.0
20260501211503 8 0 0.0 0.0 0.00 0.00 0.00 69 1021.1
20260501211003 9 0 0.0 0.0 0.00 0.00 0.00 69 1021.1
20260501210503 9 0 0.0 0.0 0.00 0.00 0.00 69 1021.1
20260501210003 9 0 0.0 0.0 0.00 0.00 0.00 69 1021.2
20260501205524 9 0 0.0 0.0 0.00 0.00 0.00 69 1021.3
20260501205003 10 0 0.0 0.0 0.00 0.00 0.00 68 1021.3
20260501204524 10 0 0.0 0.0 0.00 0.00 0.00 68 1021.3
20260501204003 10 0 0.0 0.0 0.00 0.00 0.00 67 1021.4
20260501203503 10 0 0.0 0.0 0.00 0.00 0.00 67 1021.4
20260501203024 10 0 0.0 0.0 0.00 0.00 0.00 66 1021.5
20260501202524 10 0 0.0 0.0 0.00 0.00 0.00 66 1021.6
20260501202003 10 0 0.0 0.0 0.00 0.00 0.00 65 1021.6
20260501201503 11 0 0.0 0.0 0.00 0.00 0.00 65 1021.7
20260501201003 11 0 0.0 0.0 0.00 0.00 0.00 65 1021.7
20260501200503 11 0 0.0 0.0 0.00 0.00 0.00 64 1021.8